When you browse on this site, cookies collect data to enhance your experience and personalize the content and advertising you see.
Visit our Privacy Policy to learn more. By continuing to use the site, you agree to this use of cookies and data.
  • In Denmark
  • List of Countries
  • For 7 days
  • Water Temperature
  • Satellite Maps
  • Weather Map
  • Weather Widgets
  • user-avatar
    Login

    Hourly Weather Korfu

    Today, 26 March, Tuesday

    Time Temperature Precipitation Wind Pressure Humidity
    00:00 +15°C° 0 mm 2 mps 754 mmHg 73%
    01:00 +14°C° 0 mm 3 mps 753 mmHg 73%
    02:00 +14°C° 0 mm 4 mps 753 mmHg 74%
    03:00 +14°C° 0 mm 4 mps 753 mmHg 75%
    04:00 +14°C° 0 mm 4 mps 753 mmHg 76%
    05:00 +14°C° 0 mm 5 mps 753 mmHg 75%
    06:00 +14°C° 0 mm 5 mps 754 mmHg 74%
    07:00 +15°C° 0 mm 5 mps 753 mmHg 71%
    08:00 +15°C° 0 mm 5 mps 753 mmHg 67%
    09:00 +16°C° 0 mm 5 mps 753 mmHg 64%
    10:00 +17°C° 0 mm 5 mps 754 mmHg 60%
    11:00 +17°C° 0 mm 5 mps 754 mmHg 60%
    12:00 +19°C° 0 mm 5 mps 754 mmHg 60%
    13:00 +19°C° 0 mm 5 mps 754 mmHg 60%
    14:00 +19°C° 0 mm 4 mps 754 mmHg 62%
    15:00 +18°C° 0 mm 3 mps 754 mmHg 65%
    16:00 +18°C° 0 mm 3 mps 754 mmHg 68%
    17:00 +17°C° 0 mm 2 mps 754 mmHg 73%
    18:00 +16°C° 0 mm 2 mps 755 mmHg 79%
    19:00 +15°C° 0 mm 2 mps 755 mmHg 84%
    20:00 +15°C° 0 mm 2 mps 756 mmHg 85%
    21:00 +15°C° 0 mm 2 mps 756 mmHg 86%
    22:00 +14°C° 0 mm 2 mps 757 mmHg 87%
    23:00 +14°C° 0 mm 2 mps 757 mmHg 87%

    Tomorrow, 27 March, Wednesday

    Time Temperature Precipitation Wind Pressure Humidity
    00:00 +14°C° 0 mm 2 mps 758 mmHg 87%
    01:00 +14°C° 0 mm 2 mps 758 mmHg 87%
    02:00 +13°C° 0 mm 3 mps 758 mmHg 85%
    03:00 +13°C° 0 mm 3 mps 758 mmHg 84%
    04:00 +13°C° 0 mm 4 mps 758 mmHg 83%
    05:00 +13°C° 0 mm 4 mps 758 mmHg 79%
    06:00 +13°C° 0 mm 4 mps 759 mmHg 75%
    07:00 +14°C° 0 mm 4 mps 759 mmHg 71%
    08:00 +15°C° 0 mm 4 mps 759 mmHg 66%
    09:00 +17°C° 0 mm 4 mps 759 mmHg 62%
    10:00 +18°C° 0 mm 4 mps 759 mmHg 57%
    11:00 +18°C° 0.3 mm 4 mps 759 mmHg 60%
    12:00 +17°C° 0.3 mm 5 mps 759 mmHg 64%
    13:00 +17°C° 0.3 mm 5 mps 759 mmHg 67%
    14:00 +16°C° 0.6 mm 5 mps 759 mmHg 70%
    15:00 +15°C° 0.6 mm 4 mps 759 mmHg 72%
    16:00 +15°C° 0.6 mm 4 mps 759 mmHg 75%
    17:00 +14°C° 0.7 mm 3 mps 759 mmHg 77%
    18:00 +13°C° 0.7 mm 3 mps 759 mmHg 79%
    19:00 +14°C° 0.7 mm 2 mps 759 mmHg 81%
    20:00 +14°C° 1.4 mm 2 mps 760 mmHg 83%
    21:00 +13°C° 1.4 mm 2 mps 760 mmHg 84%
    22:00 +13°C° 1.4 mm 2 mps 760 mmHg 86%
    23:00 +13°C° 1.4 mm 2 mps 760 mmHg 87%

    Day after tomorrow, 28 March, Thursday

    Time Temperature Precipitation Wind Pressure Humidity
    00:00 +12°C° 1.4 mm 3 mps 760 mmHg 88%
    01:00 +11°C° 1.4 mm 3 mps 760 mmHg 89%
    02:00 +11°C° 0.9 mm 3 mps 760 mmHg 89%
    03:00 +12°C° 0.9 mm 2 mps 760 mmHg 89%
    04:00 +12°C° 0.9 mm 2 mps 759 mmHg 89%
    05:00 +12°C° 0.2 mm 2 mps 760 mmHg 84%
    06:00 +12°C° 0.2 mm 3 mps 760 mmHg 78%
    07:00 +12°C° 0.2 mm 3 mps 760 mmHg 73%
    08:00 +12°C° 0 mm 3 mps 760 mmHg 67%
    09:00 +13°C° 0 mm 3 mps 761 mmHg 62%
    10:00 +14°C° 0 mm 3 mps 761 mmHg 56%
    11:00 +14°C° 0 mm 3 mps 761 mmHg 55%
    12:00 +16°C° 0 mm 2 mps 761 mmHg 54%
    13:00 +16°C° 0 mm 2 mps 761 mmHg 53%
    14:00 +16°C° 0 mm 2 mps 761 mmHg 55%
    15:00 +16°C° 0 mm 3 mps 761 mmHg 57%
    16:00 +16°C° 0 mm 3 mps 761 mmHg 59%
    17:00 +14°C° 0 mm 3 mps 761 mmHg 63%
    18:00 +14°C° 0 mm 2 mps 761 mmHg 67%
    19:00 +14°C° 0 mm 2 mps 761 mmHg 71%
    20:00 +14°C° 0 mm 2 mps 762 mmHg 68%
    21:00 +12°C° 0 mm 3 mps 762 mmHg 65%
    22:00 +12°C° 0 mm 3 mps 762 mmHg 62%
    23:00 +12°C° 0 mm 3 mps 763 mmHg 63%

    29 March, Friday

    Time Temperature Precipitation Wind Pressure Humidity
    00:00 +11°C° 0 mm 3 mps 763 mmHg 64%
    01:00 +11°C° 0 mm 3 mps 763 mmHg 65%
    02:00 +11°C° 0 mm 3 mps 763 mmHg 66%
    03:00 +10°C° 0 mm 3 mps 763 mmHg 67%
    04:00 +10°C° 0 mm 3 mps 763 mmHg 68%
    05:00 +11°C° 0 mm 3 mps 764 mmHg 66%
    06:00 +11°C° 0 mm 3 mps 764 mmHg 64%
    07:00 +12°C° 0 mm 3 mps 764 mmHg 62%
    08:00 +14°C° 0 mm 2 mps 764 mmHg 55%
    09:00 +16°C° 0 mm 2 mps 764 mmHg 49%
    10:00 +18°C° 0 mm 1 mps 764 mmHg 43%
    11:00 +17°C° 0 mm 2 mps 764 mmHg 43%
    12:00 +17°C° 0 mm 3 mps 764 mmHg 44%
    13:00 +17°C° 0 mm 3 mps 763 mmHg 44%
    14:00 +17°C° 0 mm 4 mps 763 mmHg 43%
    15:00 +16°C° 0 mm 5 mps 763 mmHg 42%
    16:00 +16°C° 0 mm 5 mps 762 mmHg 40%
    17:00 +15°C° 0 mm 5 mps 763 mmHg 45%
    18:00 +15°C° 0 mm 6 mps 763 mmHg 50%
    19:00 +14°C° 0 mm 6 mps 763 mmHg 55%
    20:00 +13°C° 0 mm 5 mps 763 mmHg 55%
    21:00 +13°C° 0 mm 4 mps 764 mmHg 56%
    22:00 +12°C° 0 mm 3 mps 764 mmHg 56%
    23:00 +12°C° 0 mm 4 mps 764 mmHg 57%

    30 March, Saturday

    Time Temperature Precipitation Wind Pressure Humidity
    00:00 +11°C° 0 mm 4 mps 764 mmHg 57%
    01:00 +11°C° 0 mm 4 mps 763 mmHg 58%
    02:00 +11°C° 0 mm 4 mps 763 mmHg 59%
    03:00 +10°C° 0 mm 3 mps 763 mmHg 61%
    04:00 +10°C° 0 mm 3 mps 763 mmHg 62%
    05:00 +10°C° 0 mm 3 mps 763 mmHg 59%
    06:00 +11°C° 0 mm 3 mps 763 mmHg 56%
    07:00 +11°C° 0 mm 3 mps 763 mmHg 53%
    08:00 +13°C° 0 mm 2 mps 763 mmHg 48%
    09:00 +15°C° 0 mm 1 mps 763 mmHg 43%
    10:00 +18°C° 0 mm 1 mps 763 mmHg 38%
    11:00 +17°C° 0 mm 2 mps 762 mmHg 39%
    12:00 +16°C° 0 mm 3 mps 762 mmHg 41%
    13:00 +15°C° 0 mm 5 mps 761 mmHg 42%
    14:00 +15°C° 0 mm 6 mps 761 mmHg 43%
    15:00 +15°C° 0 mm 7 mps 760 mmHg 45%
    16:00 +15°C° 0 mm 7 mps 760 mmHg 46%
    17:00 +15°C° 0 mm 8 mps 760 mmHg 52%
    18:00 +13°C° 0 mm 8 mps 760 mmHg 57%
    19:00 +12°C° 0 mm 9 mps 761 mmHg 63%
    20:00 +12°C° 0 mm 7 mps 761 mmHg 63%
    21:00 +13°C° 0 mm 6 mps 761 mmHg 64%
    22:00 +12°C° 0 mm 5 mps 761 mmHg 65%
    23:00 +12°C° 0 mm 5 mps 761 mmHg 63%

    31 March, Sunday

    Time Temperature Precipitation Wind Pressure Humidity
    00:00 +12°C° 0 mm 4 mps 760 mmHg 61%
    01:00 +12°C° 0 mm 3 mps 760 mmHg 59%
    02:00 +11°C° 0 mm 3 mps 760 mmHg 58%
    03:00 +11°C° 0 mm 3 mps 760 mmHg 58%
    04:00 +12°C° 0 mm 2 mps 759 mmHg 57%
    05:00 +12°C° 0 mm 2 mps 759 mmHg 57%
    06:00 +13°C° 0 mm 2 mps 759 mmHg 56%
    07:00 +13°C° 0 mm 1 mps 759 mmHg 56%
    08:00 +15°C° 0 mm 1 mps 759 mmHg 52%
    09:00 +16°C° 0 mm 1 mps 759 mmHg 48%
    10:00 +18°C° 0 mm 1 mps 759 mmHg 45%
    11:00 +17°C° 0 mm 2 mps 759 mmHg 44%
    12:00 +18°C° 0 mm 2 mps 758 mmHg 44%
    13:00 +18°C° 0 mm 3 mps 758 mmHg 43%
    14:00 +17°C° 0 mm 4 mps 757 mmHg 45%
    15:00 +17°C° 0 mm 4 mps 757 mmHg 47%
    16:00 +16°C° 0 mm 5 mps 757 mmHg 50%
    17:00 +15°C° 0 mm 5 mps 757 mmHg 54%
    18:00 +14°C° 0 mm 5 mps 757 mmHg 59%
    19:00 +13°C° 0 mm 4 mps 757 mmHg 63%
    20:00 +13°C° 0 mm 4 mps 757 mmHg 64%
    21:00 +13°C° 0 mm 3 mps 758 mmHg 65%
    22:00 +13°C° 0 mm 3 mps 758 mmHg 66%
    23:00 +12°C° 0 mm 3 mps 758 mmHg 67%
    Show more